AB4CZ-1 Weather Reports


time (UTC)temp
C
wind
direction
speed
KPH
gust
KPH
rain 1hr
cm
rain 24hr
cm
rain mn
cm
humidity
%
barometer
mb
20260504140131 20 0 0.0 1.6 0.00 0.00 0.00 55 1019.4
20260504130131 16 0 0.0 0.0 0.00 0.00 0.00 72 1019.4
20260504120132 7 0 0.0 0.0 0.00 0.00 0.00 96 1018.7
20260504110133 6 0 0.0 0.0 0.00 0.00 0.00 95 1018.1
20260504100429 6 0 0.0 0.0 0.00 0.00 0.00 94 1017.8
20260504100131 6 0 0.0 0.0 0.00 0.00 0.00 94 1017.8
20260504081131 7 0 0.0 0.0 0.00 0.00 0.00 92 1017.8
20260504080713 7 0 0.0 0.0 0.00 0.00 0.00 92 1017.8
20260504080146 7 0 0.0 0.0 0.00 0.00 0.00 91 1017.8
20260504070131 7 0 0.0 0.0 0.00 0.00 0.00 90 1019.2
20260504060221 8 0 0.0 0.0 0.00 0.00 0.00 88 1019.3
20260504060145 8 0 0.0 0.0 0.00 0.00 0.00 88 1019.3
20260504050637 9 0 0.0 0.0 0.00 0.00 0.00 84 1019.4
20260504050137 9 0 0.0 0.0 0.00 0.00 0.00 83 1019.5
20260504045728 9 0 0.0 0.0 0.00 0.00 0.00 83 1019.4
20260504045131 10 0 0.0 0.0 0.00 0.00 0.00 83 1019.5
20260504044131 10 0 0.0 0.0 0.00 0.00 0.00 83 1019.4
20260504043636 10 0 0.0 0.0 0.00 0.00 0.00 82 1019.4
20260504043147 10 0 0.0 0.0 0.00 0.00 0.00 82 1019.4
20260504042131 10 0 0.0 0.0 0.00 0.00 0.00 81 1019.5
20260504041634 10 0 0.0 0.0 0.00 0.00 0.00 82 1019.5
20260504041131 10 0 0.0 0.0 0.00 0.00 0.00 81 1019.5
20260504040637 10 0 0.0 0.0 0.00 0.00 0.00 80 1019.5
20260504040131 10 0 0.0 0.0 0.00 0.00 0.00 81 1019.5
20260504035631 10 0 0.0 0.0 0.00 0.00 0.00 80 1019.5
20260504035139 10 0 0.0 0.0 0.00 0.00 0.00 80 1019.5
20260504034637 10 0 0.0 0.0 0.00 0.00 0.00 80 1019.6
20260504034308 10 0 0.0 0.0 0.00 0.00 0.00 79 1019.5
20260504034131 10 0 0.0 0.0 0.00 0.00 0.00 79 1019.5
20260504033634 11 0 0.0 0.0 0.00 0.00 0.00 79 1019.6
20260504033131 11 0 0.0 0.0 0.00 0.00 0.00 78 1019.6
20260504032131 11 0 0.0 0.0 0.00 0.00 0.00 78 1019.5
20260504031631 11 0 0.0 0.0 0.00 0.00 0.00 78 1019.5
20260504031134 11 0 0.0 0.0 0.00 0.00 0.00 77 1019.5
20260504025722 11 0 0.0 0.0 0.00 0.00 0.00 75 1019.5
20260504025318 11 0 0.0 0.0 0.00 0.00 0.00 74 1019.5
20260504025314 11 0 0.0 0.0 0.00 0.00 0.00 73 1019.6
20260504025131 11 0 0.0 0.0 0.00 0.00 0.00 74 1019.5
20260504024639 11 0 0.0 0.0 0.00 0.00 0.00 73 1019.6
20260504024138 11 0 0.0 0.0 0.00 0.00 0.00 72 1019.5
20260504023637 12 0 0.0 0.0 0.00 0.00 0.00 71 1019.5
20260504023256 12 0 0.0 0.0 0.00 0.00 0.00 71 1019.5
20260504023152 12 0 0.0 0.0 0.00 0.00 0.00 71 1019.5
20260504022131 12 0 0.0 0.0 0.00 0.00 0.00 70 1019.3
20260504021636 12 0 0.0 0.0 0.00 0.00 0.00 70 1019.2
20260504020636 12 0 0.0 0.0 0.00 0.00 0.00 68 1018.9
20260504020134 12 0 0.0 0.0 0.00 0.00 0.00 68 1018.9
20260504015641 12 0 0.0 0.0 0.00 0.00 0.00 66 1018.8
20260504015131 13 0 0.0 0.0 0.00 0.00 0.00 66 1018.7
20260504014639 13 0 0.0 0.0 0.00 0.00 0.00 65 1018.7
20260504014131 13 0 0.0 0.0 0.00 0.00 0.00 64 1018.7
20260504012631 13 0 0.0 0.0 0.00 0.00 0.00 64 1018.5
20260504012131 13 0 0.0 0.0 0.00 0.00 0.00 62 1018.4
20260504011631 14 0 0.0 0.0 0.00 0.00 0.00 61 1018.4
20260504011131 14 0 0.0 0.0 0.00 0.00 0.00 60 1018.2
20260504010633 14 0 0.0 0.0 0.00 0.00 0.00 58 1018.2
20260504010132 15 0 0.0 0.0 0.00 0.00 0.00 57 1018.3
20260504005634 15 0 0.0 0.0 0.00 0.00 0.00 56 1018.3
20260504005131 15 0 0.0 0.0 0.00 0.00 0.00 56 1018.1
20260504004131 15 0 0.0 0.0 0.00 0.00 0.00 53 1018.0
20260504003631 16 0 0.0 0.0 0.00 0.00 0.00 51 1017.9
20260504002634 16 0 0.0 0.0 0.00 0.00 0.00 48 1017.9
20260504001631 17 0 0.0 0.0 0.00 0.00 0.00 47 1017.8
20260504000631 17 0 0.0 0.0 0.00 0.00 0.00 45 1017.8
20260504000131 17 0 0.0 0.0 0.00 0.00 0.00 45 1017.8
20260503235238 18 0 0.0 0.0 0.00 0.00 0.00 44 1017.8
20260503234631 18 0 0.0 0.0 0.00 0.00 0.00 44 1017.7
20260503234131 18 0 0.0 0.0 0.00 0.00 0.00 44 1017.8
20260503233634 18 0 0.0 1.6 0.00 0.00 0.00 43 1017.7
20260503233133 18 0 0.0 1.6 0.00 0.00 0.00 44 1017.8
20260503232636 18 0 0.0 1.6 0.00 0.00 0.00 45 1017.7
20260503232131 18 0 0.0 1.6 0.00 0.00 0.00 43 1017.8
20260503231131 19 0 0.0 0.0 0.00 0.00 0.00 43 1017.9
20260503230631 19 0 0.0 0.0 0.00 0.00 0.00 44 1017.9
20260503225132 20 0 0.0 0.0 0.00 0.00 0.00 41 1018.0
20260503223638 20 0 0.0 0.0 0.00 0.00 0.00 40 1017.8
20260503223132 20 0 0.0 0.0 0.00 0.00 0.00 39 1017.8
20260503222858 20 0 0.0 0.0 0.00 0.00 0.00 40 1017.9
20260503222645 20 0 0.0 0.0 0.00 0.00 0.00 40 1017.9
20260503222132 20 0 0.0 0.0 0.00 0.00 0.00 41 1017.9
20260503221635 20 0 0.0 0.0 0.00 0.00 0.00 41 1017.9
20260503221132 20 0 0.0 0.0 0.00 0.00 0.00 40 1017.8
20260503220631 20 0 0.0 0.0 0.00 0.00 0.00 40 1017.8
20260503220427 20 0 0.0 0.0 0.00 0.00 0.00 44 1017.9
20260503220131 20 0 0.0 0.0 0.00 0.00 0.00 44 1017.9
20260503215631 20 0 0.0 0.0 0.00 0.00 0.00 42 1017.8
20260503213131 20 0 0.0 0.0 0.00 0.00 0.00 41 1018.0
20260503211724 20 0 0.0 0.0 0.00 0.00 0.00 39 1018.2
20260503211634 20 0 0.0 0.0 0.00 0.00 0.00 39 1018.2
20260503211141 20 0 0.0 0.0 0.00 0.00 0.00 39 1018.1
20260503210631 20 0 0.0 0.0 0.00 0.00 0.00 38 1018.2
20260503210131 20 0 0.0 0.0 0.00 0.00 0.00 36 1018.3
20260503205131 21 0 0.0 0.0 0.00 0.00 0.00 38 1018.4
20260503204133 21 0 0.0 0.0 0.00 0.00 0.00 39 1018.3
20260503203959 21 0 0.0 0.0 0.00 0.00 0.00 38 1018.6
20260503203631 21 0 0.0 0.0 0.00 0.00 0.00 38 1018.6
20260503203131 21 0 0.0 0.0 0.00 0.00 0.00 36 1018.6
20260503202131 21 0 0.0 0.0 0.00 0.00 0.00 38 1018.8
20260503201631 21 0 0.0 0.0 0.00 0.00 0.00 36 1018.9
20260503200131 22 0 0.0 0.0 0.00 0.00 0.00 36 1019.1
20260503195631 22 0 0.0 0.0 0.00 0.00 0.00 35 1019.2
20260503195131 22 0 0.0 0.0 0.00 0.00 0.00 34 1019.2
20260503194634 22 0 0.0 0.0 0.00 0.00 0.00 34 1019.4
20260503194131 21 0 0.0 0.0 0.00 0.00 0.00 31 1019.4
20260503193635 22 0 0.0 0.0 0.00 0.00 0.00 37 1019.4
20260503193140 21 0 0.0 0.0 0.00 0.00 0.00 36 1019.5
20260503192633 21 0 0.0 0.0 0.00 0.00 0.00 38 1019.6
20260503192131 21 0 0.0 0.0 0.00 0.00 0.00 33 1019.7
20260503191713 21 0 0.0 0.0 0.00 0.00 0.00 36 1019.8
20260503191631 21 0 0.0 0.0 0.00 0.00 0.00 36 1019.8
20260503190131 21 0 0.0 6.4 0.00 0.00 0.00 38 1020.1
20260503185131 21 0 0.0 0.0 0.00 0.00 0.00 41 1020.3
20260503184632 21 0 0.0 0.0 0.00 0.00 0.00 39 1020.3
20260503184131 21 0 0.0 4.8 0.00 0.00 0.00 38 1020.4
20260503183140 21 0 0.0 8.0 0.00 0.00 0.00 39 1020.6
20260503182631 21 0 0.0 8.0 0.00 0.00 0.00 40 1020.6
20260503182131 21 0 0.0 3.2 0.00 0.00 0.00 41 1020.7
20260503181631 21 0 0.0 9.7 0.00 0.00 0.00 39 1020.7
20260503181142 21 359 4.8 9.7 0.00 0.00 0.00 39 1020.6
20260503180706 21 0 0.0 0.0 0.00 0.00 0.00 42 1020.7
20260503180702 21 0 0.0 0.0 0.00 0.00 0.00 36 1020.7
20260503180633 21 0 0.0 0.0 0.00 0.00 0.00 42 1020.7
20260503180131 21 0 0.0 0.0 0.00 0.00 0.00 36 1020.7
20260503175131 22 0 0.0 0.0 0.00 0.00 0.00 40 1020.8
20260503174636 21 0 0.0 0.0 0.00 0.00 0.00 38 1020.7
20260503174131 20 0 0.0 0.0 0.00 0.00 0.00 39 1020.9
20260503173631 21 0 0.0 0.0 0.00 0.00 0.00 36 1020.8
20260503173131 21 0 0.0 0.0 0.00 0.00 0.00 38 1020.9
20260503172648 21 0 0.0 0.0 0.00 0.00 0.00 38 1021.0
20260503172145 21 0 0.0 0.0 0.00 0.00 0.00 38 1021.0
20260503171221 21 0 0.0 0.0 0.00 0.00 0.00 40 1021.2
20260503171143 21 0 0.0 0.0 0.00 0.00 0.00 40 1021.2
20260503170631 21 0 0.0 0.0 0.00 0.00 0.00 38 1021.2
20260503170131 21 0 0.0 0.0 0.00 0.00 0.00 44 1021.2
20260503150635 17 0 0.0 0.0 0.00 0.00 0.00 49 1022.0